Weather History for Rensselaer, IN

Change the Weather History Date:

Wednesday, November 6, 2013

  Actual Average (KVPZ) Record (KVPZ)
Temperature  
Mean Temperature 46 °F 45 °F  
Max Temperature 57 °F 54 °F 70 °F (2008)
Min Temperature 35 °F 37 °F 23 °F (2012)
Degree Days  
Heating Degree Days 19 20  
Month to date heating degree days 113  
Since 1 July heating degree days 643  
Cooling Degree Days 0 0  
Month to date cooling degree days 0  
Year to date cooling degree days 713  
Moisture  
Dew Point 46 °F    
Average Humidity 87    
Maximum Humidity 94    
Minimum Humidity 63    
Precipitation  
Precipitation 0.15 in 0.13 in 0.70 in (2013)
Month to date precipitation 0.80  
Year to date precipitation 32.80  
Sea Level Pressure  
Sea Level Pressure 29.99 in    
Wind  
Wind Speed 18 mph (SW)    
Max Wind Speed 26 mph    
Max Gust Speed 36 mph    
Visibility 9 miles    
Events Rain    
T = Trace of Precipitation, MM = Missing Value Source: NWS Daily Summary

Daily Weather History Graph

Daily Weather History Graph

Search for Another Location

Airport:

Trip Planner

Search our weather history database for the weather conditions in past years. The results will help you decide how hot, cold, wet, or windy it might be!

Date:

Astronomy

Nov. 06, 2013 Rise Set
Actual Time 6:25 AM CST 4:38 PM CST
Civil Twilight 5:56 AM CST 5:07 PM CST
Nautical Twilight 5:24 AM CST 5:40 PM CST
Astronomical Twilight 4:51 AM CST 6:12 PM CST
Moon 9:40 AM CST (11/6) 7:41 PM CST (11/6)
Length of Visible Light 11h 10m
Length of Day
10h 12m
Waxing Crescent, 14% of the Moon is Illuminated
Nov 6
Waxing Crescent
Nov 9
First Quarter
Nov 17
Full
Nov 25
Last Quarter
Dec 2
New

Hourly Weather History & Observations

Time (CST) Temp. Windchill Dew Point Humidity Pressure Visibility Wind Dir Wind Speed Gust Speed Precip Events Conditions
12:35 AM 57.2 °F - 44.6 °F 63% 30.03 in 10.0 mi South 18.4 mph 23.0 mph N/A   Overcast
12:55 AM 57.2 °F - 44.6 °F 63% 30.01 in 10.0 mi South 19.6 mph 26.5 mph N/A   Overcast
1:15 AM 57.2 °F - 44.6 °F 63% 30.00 in 10.0 mi South 18.4 mph 24.2 mph N/A   Overcast
1:35 AM 57.2 °F - 44.6 °F 63% 30.00 in 10.0 mi South 17.3 mph 23.0 mph N/A   Overcast
1:55 AM 57.2 °F - 46.4 °F 67% 29.99 in 10.0 mi South 13.8 mph - N/A   Overcast
2:15 AM 57.2 °F - 46.4 °F 67% 29.98 in 10.0 mi South 12.7 mph - N/A Rain Light Rain
2:35 AM 57.2 °F - 50.0 °F 77% 29.98 in 10.0 mi South 17.3 mph 25.3 mph N/A Rain Light Rain
2:55 AM 55.4 °F - 51.8 °F 88% 29.97 in 7.0 mi South 19.6 mph 27.6 mph 0.02 in Rain Light Rain
3:15 AM 55.4 °F - 51.8 °F 88% 29.96 in 10.0 mi South 17.3 mph 24.2 mph 0.01 in Rain Light Rain
3:35 AM 55.4 °F - 51.8 °F 88% 29.96 in 10.0 mi South 18.4 mph 26.5 mph 0.02 in Rain Rain
3:55 AM 55.4 °F - 51.8 °F 88% 29.94 in 10.0 mi South 17.3 mph 26.5 mph 0.03 in Rain Light Rain
4:15 AM 55.4 °F - 51.8 °F 88% 29.94 in 10.0 mi South 13.8 mph 25.3 mph N/A Rain Light Rain
4:35 AM 55.4 °F - 51.8 °F 88% 29.94 in 10.0 mi South 17.3 mph 26.5 mph N/A   Overcast
4:55 AM 55.4 °F - 51.8 °F 88% 29.93 in 10.0 mi South 23.0 mph - N/A   Overcast
5:15 AM 55.4 °F - 51.8 °F 88% 29.93 in 10.0 mi South 20.7 mph 27.6 mph N/A   Overcast
5:35 AM 55.4 °F - 51.8 °F 88% 29.93 in 10.0 mi South 24.2 mph 29.9 mph N/A   Overcast
5:55 AM 55.4 °F - 51.8 °F 88% 29.92 in 10.0 mi South 21.9 mph 28.8 mph N/A Rain Rain
6:15 AM 55.4 °F - 51.8 °F 88% 29.92 in 10.0 mi South 23.0 mph 29.9 mph N/A Rain Light Rain
6:35 AM 55.4 °F - 51.8 °F 88% 29.92 in 10.0 mi South 19.6 mph 29.9 mph 0.02 in Rain Light Rain
6:55 AM 53.6 °F - 51.8 °F 94% 29.92 in 10.0 mi South 21.9 mph 29.9 mph 0.03 in Rain Rain
7:15 AM 55.4 °F - 51.8 °F 88% 29.91 in 10.0 mi South 23.0 mph 28.8 mph N/A Rain Light Rain
7:35 AM 55.4 °F - 51.8 °F 88% 29.91 in 10.0 mi South 23.0 mph 31.1 mph N/A   Overcast
7:55 AM 55.4 °F - 51.8 °F 88% 29.91 in 10.0 mi South 24.2 mph 29.9 mph N/A Rain Rain
8:15 AM 55.4 °F - 51.8 °F 88% 29.91 in 7.0 mi South 21.9 mph 32.2 mph N/A Rain Rain
8:35 AM 53.6 °F - 51.8 °F 94% 29.91 in 10.0 mi South 23.0 mph 29.9 mph 0.01 in Rain Rain
8:55 AM 53.6 °F - 51.8 °F 94% 29.91 in 5.0 mi SSW 23.0 mph 31.1 mph 0.03 in Rain Rain
9:15 AM 53.6 °F - 51.8 °F 94% 29.91 in 4.0 mi SSW 23.0 mph 29.9 mph 0.03 in Rain Light Rain
9:35 AM 53.6 °F - 51.8 °F 94% 29.91 in 3.0 mi South 20.7 mph 31.1 mph 0.03 in Rain Light Rain
9:55 AM 53.6 °F - 51.8 °F 94% 29.90 in 4.0 mi South 25.3 mph 31.1 mph 0.03 in Rain Light Rain
10:15 AM 53.6 °F - 51.8 °F 94% 29.89 in 10.0 mi South 26.5 mph 32.2 mph N/A Rain Light Rain
10:35 AM 53.6 °F - 51.8 °F 94% 29.88 in 10.0 mi SSW 23.0 mph 28.8 mph 0.01 in Rain Light Rain
10:55 AM 53.6 °F - 51.8 °F 94% 29.87 in 10.0 mi South 24.2 mph 35.7 mph 0.01 in   Overcast
11:15 AM 53.6 °F - 51.8 °F 94% 29.87 in 10.0 mi SSW 21.9 mph 29.9 mph N/A   Overcast
11:35 AM 55.4 °F - 51.8 °F 88% 29.88 in 10.0 mi SSW 23.0 mph 28.8 mph N/A   Overcast
11:55 AM 55.4 °F - 51.8 °F 88% 29.87 in 10.0 mi SSW 21.9 mph 32.2 mph N/A   Overcast
12:15 PM 55.4 °F - 51.8 °F 88% 29.88 in 10.0 mi SSW 23.0 mph 28.8 mph N/A   Overcast
12:35 PM 55.4 °F - 51.8 °F 88% 29.89 in 4.0 mi SSW 21.9 mph 28.8 mph N/A Rain Rain
12:55 PM 53.6 °F - 51.8 °F 94% 29.91 in 7.0 mi WSW 23.0 mph 27.6 mph N/A   Light Drizzle
1:15 PM 51.8 °F - 50.0 °F 94% 29.91 in 4.0 mi WSW 13.8 mph 20.7 mph N/A   Overcast
1:35 PM 50.0 °F - 48.2 °F 94% 29.91 in 10.0 mi West 15.0 mph 23.0 mph N/A   Overcast
1:55 PM 48.2 °F - 46.4 °F 93% 29.92 in 10.0 mi WSW 17.3 mph 24.2 mph N/A   Overcast
2:15 PM 46.4 °F 39.0 °F 44.6 °F 93% 29.94 in 3.0 mi WSW 19.6 mph - N/A   Drizzle
2:35 PM 46.4 °F 39.5 °F 44.6 °F 93% 29.95 in 10.0 mi West 17.3 mph 27.6 mph N/A   Overcast
2:55 PM 44.6 °F 36.9 °F 42.8 °F 93% 29.97 in 10.0 mi West 18.4 mph 25.3 mph N/A   Overcast
3:15 PM 44.6 °F 36.9 °F 42.8 °F 93% 29.98 in 10.0 mi West 18.4 mph 23.0 mph N/A   Overcast
3:35 PM 44.6 °F 37.8 °F 42.8 °F 93% 29.98 in 10.0 mi West 15.0 mph 20.7 mph N/A   Overcast
3:55 PM 44.6 °F 37.2 °F 41.0 °F 87% 30.00 in 10.0 mi West 17.3 mph 21.9 mph N/A   Overcast
4:15 PM 42.8 °F 35.4 °F 41.0 °F 93% 30.01 in 10.0 mi West 15.0 mph 19.6 mph N/A   Overcast
4:35 PM 42.8 °F 35.4 °F 41.0 °F 93% 30.02 in 7.0 mi West 15.0 mph 19.6 mph N/A   Overcast
4:55 PM 42.8 °F 35.1 °F 41.0 °F 93% 30.05 in 10.0 mi West 16.1 mph 21.9 mph N/A   Overcast
5:15 PM 42.8 °F 37.5 °F 41.0 °F 93% 30.05 in 10.0 mi West 9.2 mph 18.4 mph N/A   Overcast
5:35 PM 42.8 °F 38.0 °F 39.2 °F 87% 30.05 in 5.0 mi WNW 8.1 mph - N/A   Overcast
5:55 PM 42.8 °F 37.0 °F 39.2 °F 87% 30.08 in 10.0 mi West 10.4 mph - N/A   Overcast
6:15 PM 42.8 °F 37.5 °F 39.2 °F 87% 30.08 in 10.0 mi WNW 9.2 mph 16.1 mph N/A   Overcast
6:35 PM 42.8 °F 36.2 °F 39.2 °F 87% 30.10 in 10.0 mi West 12.7 mph 19.6 mph N/A   Overcast
6:55 PM 42.8 °F 37.5 °F 39.2 °F 87% 30.11 in 10.0 mi WNW 9.2 mph - N/A   Overcast
7:15 PM 42.8 °F 36.6 °F 37.4 °F 81% 30.11 in 10.0 mi WNW 11.5 mph 17.3 mph N/A   Overcast
7:35 PM 42.8 °F 36.6 °F 37.4 °F 81% 30.11 in 10.0 mi WNW 11.5 mph 18.4 mph N/A   Overcast
7:55 PM 42.8 °F 36.2 °F 37.4 °F 81% 30.11 in 10.0 mi WNW 12.7 mph 18.4 mph N/A   Overcast
8:15 PM 41.0 °F 35.8 °F 35.6 °F 81% 30.12 in 10.0 mi WNW 8.1 mph - N/A   Scattered Clouds
8:35 PM 41.0 °F 36.4 °F 35.6 °F 81% 30.12 in 10.0 mi West 6.9 mph - N/A   Scattered Clouds
8:55 PM 41.0 °F 35.8 °F 37.4 °F 87% 30.13 in 10.0 mi West 8.1 mph - N/A   Mostly Cloudy
9:15 PM 41.0 °F 36.4 °F 37.4 °F 87% 30.12 in 10.0 mi West 6.9 mph - N/A   Overcast
9:35 PM 39.2 °F 35.0 °F 37.4 °F 93% 30.13 in 10.0 mi West 5.8 mph - N/A   Mostly Cloudy
9:55 PM 39.2 °F 34.2 °F 37.4 °F 93% 30.12 in 10.0 mi West 6.9 mph - N/A   Overcast
10:15 PM 39.2 °F 33.6 °F 37.4 °F 93% 30.13 in 10.0 mi West 8.1 mph - N/A   Mostly Cloudy
10:35 PM 39.2 °F 32.0 °F 35.6 °F 87% 30.14 in 10.0 mi West 11.5 mph - N/A   Scattered Clouds
10:55 PM 37.4 °F 31.4 °F 33.8 °F 87% 30.14 in 10.0 mi West 8.1 mph - N/A   Clear
11:15 PM 37.4 °F 31.4 °F 33.8 °F 87% 30.15 in 10.0 mi West 8.1 mph - N/A   Clear
11:35 PM 35.6 °F 28.0 °F 33.8 °F 93% 30.15 in 10.0 mi WNW 10.4 mph - N/A   Clear
11:55 PM 35.6 °F 29.2 °F 33.8 °F 93% 30.16 in 10.0 mi WNW 8.1 mph - N/A   Clear